FENGYUN 1C DEB

Satellite information

Favourite Embed

Satellite Type and Status

DEBRISIN ORBIT

Key statistics

Satellite FENGYUN 1C DEB at a glance.

Uptime

9610

Days in orbit

Revolutions

≈ 14.3

Per day

Orbit

SSO

Sun Synchronous Orbit

Inclination

98.8

Latest

Satellite identification and parameters

Extended collection of information and parameters for FENGYUN 1C DEB.

Object identification

Identified? True

Debris? True

Object name: FENGYUN 1C DEB

International designator: 1999-025ABH

Object number (NORAD): 30346

Object ID (CCSDS): 30346

Country: PEOPLES REPUBLIC OF CHINA (PRC)

Current information (Y/N): Y

RCS size: SMALL

Orbital parameters

Period: 100.555 minutes

Inclination: 98.8082 deg

SMA: 7163.006 km

Apoapsis: 825.542 km

Periapsis: 744.199 km

RAAN: 337.8038 deg

Eccentricy: 0.00567799

Argument of periapsis: 327.6702 deg

Mean anomaly: 150.5698 deg

Mean motion: 14.32055347 rev/day

Mean motion (dot): 0.00006967 rev/day2

B* drag term: 0.0025623476 1/REarth

Two-line elements (TLE)

Creation date: Aug. 31, 2025, 2:26 a.m.

Reference frame: TEME

Reference center: EARTH

Epoch: Aug. 30, 2025, 8:01 p.m. UTC

TLE line 0: 0 FENGYUN 1C DEB

TLE line 1: 1 30346U 99025ABH 25242.83455958 .00006967 00000-0 25623-2 0 9991

TLE line 2: 2 30346 98.8082 337.8038 0056780 327.6702 150.5698 14.32055347959256

Live tracking on map

Real-time ground track for satellite FENGYUN 1C DEB.

In-orbit conjunctions

A list of the most updated potential collisions computed for object FENGYUN 1C DEB.

Target Orbit TCA Probability of collision Miss distance Type
SL-3 R/B LEO 2025-01-12 02:58:01 0.00013578 486.0 (m) ROCKET BODY
METEOR 1-16 LEO 2024-11-30 06:43:32 0.0001276385 629.0 (m) PAYLOAD
ORBCOMM FM 16 DEB LEO 2024-11-18 09:47:41 0.0003340408 128.0 (m) DEBRIS
METEOR 2-7 LEO 2024-06-08 23:37:08 0.0001427175 548.0 (m) PAYLOAD

Associated space launch

Chinese polar orbiting meteorological satellite

FENGYUN 1C DEB was lifted into orbit during the mission ‘Long March 4B | Feng Yun 1C’, on board a Long March 4B space rocket.

The launch took place on May 10, 1999, 1:33 a.m. from Launch Complex 7.

For more information about the launch, click the button.

Launch to space Long March 4B | Feng Yun 1C
Long March 4B | Feng Yun 1C

Agency: N/A

Status: Launch Successful

Launch date: May 10, 1999, 1:33 a.m. UTC

Rocket: Long March 4B

Launch pad: Launch Complex 7

Location: Taiyuan Satellite Launch Center, People's Republic of China

...

Latest news about this satellite

There are no fresh news available about this satellite. Check back as we update our databases every day.


Newsletter sign-up

Weekly statistics, charts and insights to help you stay on top of the space industry.